| time (UTC) | temp F | wind direction | speed knots | gust knots | rain 1hr in | rain 24hr in | rain mn in | humidity % | barometer mb |
| 20260503052926 | 79 | 250 | 17.4 | 0.0 | 0.00 | 0.00 | 0.00 | 82 | 1008.2 |
| 20260503052417 | 79 | 265 | 18.2 | 0.0 | 0.00 | 0.00 | 0.00 | 82 | 1008.3 |
| 20260503051917 | 79 | 257 | 21.7 | 0.0 | 0.00 | 0.00 | 0.00 | 81 | 1008.3 |
| 20260503051416 | 79 | 255 | 20.9 | 0.0 | 0.00 | 0.00 | 0.00 | 81 | 1008.3 |
| 20260503050916 | 79 | 267 | 22.6 | 0.0 | 0.00 | 0.00 | 0.00 | 80 | 1008.3 |
| 20260503050412 | 79 | 310 | 15.6 | 0.0 | 0.00 | 0.00 | 0.00 | 80 | 1008.5 |
| 20260503045912 | 79 | 305 | 3.5 | 0.0 | 0.00 | 0.00 | 0.00 | 80 | 1008.5 |
| 20260503045412 | 79 | 258 | 13.0 | 0.0 | 0.00 | 0.00 | 0.00 | 80 | 1008.5 |
| 20260503044912 | 79 | 262 | 21.7 | 0.0 | 0.00 | 0.00 | 0.00 | 79 | 1008.4 |
| 20260503044411 | 79 | 262 | 20.0 | 0.0 | 0.00 | 0.00 | 0.00 | 79 | 1008.4 |
| 20260503043751 | 79 | 255 | 20.9 | 0.0 | 0.00 | 0.00 | 0.00 | 79 | 1008.4 |
| 20260503043253 | 80 | 264 | 24.3 | 0.0 | 0.00 | 0.00 | 0.00 | 79 | 1008.3 |
| 20260503042750 | 80 | 255 | 22.6 | 0.0 | 0.00 | 0.00 | 0.00 | 78 | 1008.2 |
| 20260503042247 | 80 | 243 | 21.7 | 0.0 | 0.00 | 0.00 | 0.00 | 78 | 1008.3 |
| 20260503040002 | 80 | 260 | 12.2 | 0.0 | 0.00 | 0.00 | 0.00 | 77 | 1008.4 |
| 20260503034654 | 80 | 277 | 12.2 | 0.0 | 0.00 | 0.00 | 0.00 | 76 | 1008.4 |
| 20260503034158 | 80 | 274 | 20.0 | 0.0 | 0.00 | 0.00 | 0.00 | 76 | 1008.2 |
| 20260503033645 | 80 | 274 | 10.4 | 0.0 | 0.00 | 0.00 | 0.00 | 75 | 1008.2 |
| 20260503033140 | 80 | 335 | 9.6 | 0.0 | 0.00 | 0.00 | 0.00 | 75 | 1007.9 |
| 20260503032640 | 80 | 255 | 21.7 | 0.0 | 0.00 | 0.00 | 0.00 | 75 | 1007.7 |
| 20260503032113 | 80 | 262 | 24.3 | 0.0 | 0.00 | 0.00 | 0.00 | 75 | 1007.8 |
| 20260503031613 | 81 | 264 | 23.5 | 0.0 | 0.00 | 0.00 | 0.00 | 74 | 1007.8 |
| 20260503031113 | 81 | 248 | 21.7 | 0.0 | 0.00 | 0.00 | 0.00 | 74 | 1008.0 |
| 20260503030613 | 81 | 293 | 25.2 | 0.0 | 0.00 | 0.00 | 0.00 | 73 | 1007.7 |
| 20260503030112 | 81 | 288 | 20.9 | 0.0 | 0.00 | 0.00 | 0.00 | 73 | 1007.7 |
| 20260503025612 | 81 | 276 | 9.6 | 0.0 | 0.00 | 0.00 | 0.00 | 74 | 1007.7 |
| 20260503025112 | 81 | 276 | 20.9 | 0.0 | 0.00 | 0.00 | 0.00 | 74 | 1007.6 |
| 20260503024611 | 81 | 236 | 12.2 | 0.0 | 0.00 | 0.00 | 0.00 | 74 | 1007.6 |
| 20260503024111 | 81 | 259 | 19.1 | 0.0 | 0.00 | 0.00 | 0.00 | 73 | 1007.7 |
| 20260503023611 | 81 | 276 | 15.6 | 0.0 | 0.00 | 0.00 | 0.00 | 73 | 1007.8 |
| 20260503022610 | 81 | 274 | 23.5 | 0.0 | 0.00 | 0.00 | 0.00 | 72 | 1007.6 |
| 20260503022109 | 81 | 265 | 20.0 | 0.0 | 0.00 | 0.00 | 0.00 | 72 | 1007.6 |
| 20260503021608 | 82 | 267 | 14.8 | 0.0 | 0.00 | 0.00 | 0.00 | 72 | 1007.6 |
| 20260503021108 | 82 | 272 | 24.3 | 0.0 | 0.00 | 0.00 | 0.00 | 71 | 1007.5 |
| 20260503020608 | 82 | 255 | 14.8 | 0.0 | 0.00 | 0.00 | 0.00 | 71 | 1007.6 |
| 20260503020108 | 82 | 319 | 19.1 | 0.0 | 0.00 | 0.00 | 0.00 | 70 | 1007.4 |
| 20260503015607 | 82 | 248 | 22.6 | 0.0 | 0.00 | 0.00 | 0.00 | 70 | 1007.4 |
| 20260503015107 | 82 | 274 | 21.7 | 0.0 | 0.00 | 0.00 | 0.00 | 69 | 1007.3 |
| 20260503014607 | 82 | 253 | 29.5 | 0.0 | 0.00 | 0.00 | 0.00 | 69 | 1007.2 |
| 20260503014228 | 82 | 264 | 21.7 | 0.0 | 0.00 | 0.00 | 0.00 | 67 | 1007.2 |
| 20260503014222 | 82 | 258 | 24.3 | 0.0 | 0.00 | 0.00 | 0.00 | 68 | 1007.2 |
| 20260503014150 | 82 | 258 | 24.3 | 0.0 | 0.00 | 0.00 | 0.00 | 68 | 1007.2 |
| 20260503012604 | 83 | 262 | 21.7 | 0.0 | 0.00 | 0.00 | 0.00 | 66 | 1007.1 |
| 20260503012104 | 83 | 274 | 22.6 | 0.0 | 0.00 | 0.00 | 0.00 | 65 | 1007.1 |
| 20260503011604 | 83 | 257 | 23.5 | 0.0 | 0.00 | 0.00 | 0.00 | 64 | 1007.0 |
| 20260503011101 | 84 | 260 | 26.9 | 0.0 | 0.00 | 0.00 | 0.00 | 62 | 1006.9 |
| 20260503010601 | 84 | 259 | 27.8 | 0.0 | 0.00 | 0.00 | 0.00 | 62 | 1006.9 |
| 20260503010100 | 84 | 269 | 26.1 | 0.0 | 0.00 | 0.00 | 0.00 | 60 | 1006.8 |
| 20260503005557 | 84 | 290 | 20.0 | 0.0 | 0.00 | 0.00 | 0.00 | 59 | 1006.9 |
| 20260503005058 | 85 | 272 | 27.8 | 0.0 | 0.00 | 0.00 | 0.00 | 59 | 1006.7 |
| 20260503004557 | 85 | 250 | 13.9 | 0.0 | 0.00 | 0.00 | 0.00 | 58 | 1006.8 |
| 20260503004056 | 85 | 262 | 19.1 | 0.0 | 0.00 | 0.00 | 0.00 | 57 | 1006.7 |
| 20260503003556 | 85 | 272 | 6.1 | 0.0 | 0.00 | 0.00 | 0.00 | 57 | 1006.5 |
| 20260503003056 | 85 | 274 | 12.2 | 0.0 | 0.00 | 0.00 | 0.00 | 56 | 1006.5 |
| 20260503002555 | 86 | 283 | 11.3 | 0.0 | 0.00 | 0.00 | 0.00 | 55 | 1006.4 |
| 20260503002055 | 86 | 293 | 13.0 | 0.0 | 0.00 | 0.00 | 0.00 | 55 | 1006.4 |
| 20260503001555 | 86 | 278 | 13.0 | 0.0 | 0.00 | 0.00 | 0.00 | 54 | 1006.3 |
| 20260503001055 | 86 | 46 | 6.1 | 0.0 | 0.00 | 0.00 | 0.00 | 54 | 1006.3 |
| 20260503000554 | 87 | 271 | 26.9 | 0.0 | 0.00 | 0.00 | 0.00 | 53 | 1006.1 |
| 20260503000054 | 87 | 291 | 11.3 | 0.0 | 0.00 | 0.00 | 0.00 | 52 | 1006.0 |
| 20260502235554 | 87 | 271 | 22.6 | 0.0 | 0.00 | 0.00 | 0.00 | 50 | 1005.9 |
| 20260502235056 | 88 | 341 | 15.6 | 0.0 | 0.00 | 0.00 | 0.00 | 49 | 1005.9 |
| 20260502234552 | 88 | 263 | 20.0 | 0.0 | 0.00 | 0.00 | 0.00 | 48 | 1005.9 |
| 20260502234052 | 88 | 238 | 11.3 | 0.0 | 0.00 | 0.00 | 0.00 | 48 | 1005.7 |
| 20260502233552 | 88 | 250 | 7.0 | 0.0 | 0.00 | 0.00 | 0.00 | 47 | 1005.6 |
| 20260502233051 | 88 | 277 | 14.8 | 0.0 | 0.00 | 0.00 | 0.00 | 46 | 1005.6 |
| 20260502232551 | 89 | 295 | 7.0 | 0.0 | 0.00 | 0.00 | 0.00 | 46 | 1005.5 |
| 20260502232048 | 89 | 343 | 10.4 | 0.0 | 0.00 | 0.00 | 0.00 | 46 | 1005.5 |
| 20260502231547 | 89 | 257 | 13.9 | 0.0 | 0.00 | 0.00 | 0.00 | 46 | 1005.4 |
| 20260502231040 | 89 | 327 | 13.0 | 0.0 | 0.00 | 0.00 | 0.00 | 45 | 1005.2 |
| 20260502230543 | 89 | 223 | 16.5 | 0.0 | 0.00 | 0.00 | 0.00 | 45 | 1005.3 |
| 20260502230040 | 89 | 320 | 14.8 | 0.0 | 0.00 | 0.00 | 0.00 | 45 | 1005.2 |
| 20260502225538 | 89 | 326 | 7.8 | 0.0 | 0.00 | 0.00 | 0.00 | 45 | 1005.1 |
| 20260502225038 | 89 | 252 | 20.9 | 0.0 | 0.00 | 0.00 | 0.00 | 45 | 1005.0 |
| 20260502224037 | 89 | 306 | 5.2 | 0.0 | 0.00 | 0.00 | 0.00 | 47 | 1004.9 |
| 20260502223537 | 89 | 264 | 25.2 | 0.0 | 0.00 | 0.00 | 0.00 | 47 | 1005.1 |
| 20260502222602 | 90 | 253 | 29.5 | 0.0 | 0.00 | 0.00 | 0.00 | 46 | 1004.8 |
| 20260502222057 | 90 | 328 | 8.7 | 0.0 | 0.00 | 0.00 | 0.00 | 46 | 1005.0 |
| 20260502220254 | 90 | 285 | 19.1 | 0.0 | 0.00 | 0.00 | 0.00 | 45 | 1004.9 |
| 20260502215658 | 90 | 283 | 15.6 | 0.0 | 0.00 | 0.00 | 0.00 | 45 | 1004.8 |
| 20260502215154 | 90 | 310 | 13.0 | 0.0 | 0.00 | 0.00 | 0.00 | 44 | 1004.9 |
| 20260502214654 | 90 | 248 | 17.4 | 0.0 | 0.00 | 0.00 | 0.00 | 44 | 1004.9 |
| 20260502214154 | 90 | 250 | 20.9 | 0.0 | 0.00 | 0.00 | 0.00 | 44 | 1004.7 |
| 20260502212933 | 91 | 291 | 18.2 | 0.0 | 0.00 | 0.00 | 0.00 | 43 | 1004.8 |
| 20260502212428 | 91 | 308 | 12.2 | 0.0 | 0.00 | 0.00 | 0.00 | 43 | 1004.7 |
| 20260502211928 | 90 | 352 | 14.8 | 0.0 | 0.00 | 0.00 | 0.00 | 43 | 1004.5 |
| 20260502210928 | 91 | 271 | 23.5 | 0.0 | 0.00 | 0.00 | 0.00 | 42 | 1004.6 |
| 20260502210427 | 91 | 262 | 10.4 | 0.0 | 0.00 | 0.00 | 0.00 | 43 | 1004.5 |
| 20260502205927 | 91 | 295 | 12.2 | 0.0 | 0.00 | 0.00 | 0.00 | 45 | 1004.6 |
| 20260502205427 | 91 | 274 | 13.0 | 0.0 | 0.00 | 0.00 | 0.00 | 45 | 1004.6 |
| 20260502204927 | 90 | 259 | 23.5 | 0.0 | 0.00 | 0.00 | 0.00 | 43 | 1004.6 |
| 20260502204426 | 90 | 269 | 27.8 | 0.0 | 0.00 | 0.00 | 0.00 | 44 | 1004.6 |
| 20260502203926 | 90 | 255 | 26.1 | 0.0 | 0.00 | 0.00 | 0.00 | 45 | 1004.6 |
| 20260502203425 | 90 | 49 | 3.5 | 0.0 | 0.00 | 0.00 | 0.00 | 46 | 1004.6 |
| 20260502202925 | 90 | 239 | 18.2 | 0.0 | 0.00 | 0.00 | 0.00 | 45 | 1004.5 |
| 20260502202425 | 91 | 257 | 17.4 | 0.0 | 0.00 | 0.00 | 0.00 | 46 | 1004.5 |
| 20260502201925 | 90 | 223 | 28.7 | 0.0 | 0.00 | 0.00 | 0.00 | 46 | 1004.6 |
| 20260502201424 | 91 | 241 | 46.1 | 0.0 | 0.00 | 0.00 | 0.00 | 46 | 1004.5 |
| 20260502200924 | 91 | 239 | 20.0 | 0.0 | 0.00 | 0.00 | 0.00 | 48 | 1004.7 |
| 20260502200424 | 91 | 221 | 15.6 | 0.0 | 0.00 | 0.00 | 0.00 | 48 | 1004.8 |
| 20260502195923 | 91 | 238 | 34.8 | 0.0 | 0.00 | 0.00 | 0.00 | 47 | 1004.7 |
| 20260502195423 | 90 | 236 | 33.9 | 0.0 | 0.00 | 0.00 | 0.00 | 48 | 1004.7 |
| 20260502194923 | 90 | 245 | 26.1 | 0.0 | 0.00 | 0.00 | 0.00 | 49 | 1004.8 |
| 20260502194423 | 90 | 243 | 39.1 | 0.0 | 0.00 | 0.00 | 0.00 | 48 | 1005.0 |
| 20260502193922 | 90 | 230 | 30.4 | 0.0 | 0.00 | 0.00 | 0.00 | 47 | 1004.9 |
| 20260502193418 | 91 | 226 | 7.8 | 0.0 | 0.00 | 0.00 | 0.00 | 51 | 1004.9 |
| 20260502192918 | 91 | 245 | 26.9 | 0.0 | 0.00 | 0.00 | 0.00 | 51 | 1004.9 |
| 20260502192418 | 91 | 257 | 26.9 | 0.0 | 0.00 | 0.00 | 0.00 | 51 | 1005.2 |
| 20260502191917 | 90 | 253 | 15.6 | 0.0 | 0.00 | 0.00 | 0.00 | 52 | 1005.0 |
| 20260502191417 | 90 | 223 | 21.7 | 0.0 | 0.00 | 0.00 | 0.00 | 54 | 1005.0 |
| 20260502190917 | 90 | 101 | 8.7 | 0.0 | 0.00 | 0.00 | 0.00 | 54 | 1005.4 |
| 20260502190417 | 89 | 28 | 4.3 | 0.0 | 0.00 | 0.00 | 0.00 | 58 | 1005.2 |
| 20260502185913 | 88 | 56 | 2.6 | 0.0 | 0.00 | 0.00 | 0.00 | 70 | 1005.4 |
| 20260502185413 | 88 | 42 | 3.5 | 0.0 | 0.00 | 0.00 | 0.00 | 65 | 1005.4 |
| 20260502184913 | 86 | 93 | 7.0 | 0.0 | 0.00 | 0.00 | 0.00 | 66 | 1005.3 |
| 20260502184413 | 85 | 30 | 3.5 | 0.0 | 0.00 | 0.00 | 0.00 | 76 | 1005.2 |
| 20260502183912 | 85 | 118 | 4.3 | 0.0 | 0.00 | 0.00 | 0.00 | 75 | 1005.3 |
| 20260502183412 | 85 | 130 | 10.4 | 0.0 | 0.00 | 0.00 | 0.00 | 76 | 1005.3 |
| 20260502182909 | 84 | 324 | 1.7 | 0.0 | 0.00 | 0.00 | 0.00 | 79 | 1005.4 |
| 20260502182409 | 83 | 96 | 6.1 | 0.0 | 0.00 | 0.00 | 0.00 | 79 | 1005.6 |
| 20260502181909 | 83 | 81 | 4.3 | 0.0 | 0.00 | 0.00 | 0.00 | 79 | 1005.5 |
| 20260502181409 | 83 | 63 | 5.2 | 0.0 | 0.00 | 0.00 | 0.00 | 79 | 1005.6 |
| 20260502180908 | 83 | 86 | 11.3 | 0.0 | 0.00 | 0.00 | 0.00 | 78 | 1005.5 |
| 20260502180408 | 84 | 86 | 10.4 | 0.0 | 0.00 | 0.00 | 0.00 | 78 | 1005.5 |
| 20260502170401 | 83 | 82 | 8.7 | 0.0 | 0.00 | 0.00 | 0.00 | 80 | 1005.7 |
| 20260502163859 | 84 | 88 | 12.2 | 0.0 | 0.00 | 0.00 | 0.00 | 80 | 1006.0 |
| 20260502163359 | 84 | 248 | 8.7 | 0.0 | 0.00 | 0.00 | 0.00 | 80 | 1006.0 |
| 20260502162859 | 84 | 89 | 5.2 | 0.0 | 0.00 | 0.00 | 0.00 | 79 | 1006.1 |
| 20260502162358 | 84 | 20 | 4.3 | 0.0 | 0.00 | 0.00 | 0.00 | 79 | 1006.2 |
| 20260502161858 | 85 | 37 | 3.5 | 0.0 | 0.00 | 0.00 | 0.00 | 79 | 1006.3 |
| 20260502161401 | 85 | 30 | 7.8 | 0.0 | 0.00 | 0.00 | 0.00 | 78 | 1006.4 |
| 20260502160858 | 85 | 88 | 4.3 | 0.0 | 0.00 | 0.00 | 0.00 | 78 | 1006.3 |
| 20260502160357 | 85 | 146 | 7.0 | 0.0 | 0.00 | 0.00 | 0.00 | 78 | 1006.4 |
| 20260502151852 | 84 | 88 | 4.3 | 0.0 | 0.00 | 0.00 | 0.00 | 78 | 1006.7 |
| 20260502151351 | 84 | 88 | 8.7 | 0.0 | 0.00 | 0.00 | 0.00 | 79 | 1006.7 |
| 20260502150351 | 84 | 89 | 7.0 | 0.0 | 0.00 | 0.00 | 0.00 | 79 | 1006.7 |
| 20260502130333 | 83 | 74 | 4.3 | 0.0 | 0.00 | 0.00 | 0.00 | 80 | 1006.1 |
| 20260502123325 | 81 | 11 | 4.3 | 0.0 | 0.00 | 0.00 | 0.00 | 82 | 1006.4 |
| 20260502122323 | 81 | 68 | 2.6 | 0.0 | 0.00 | 0.00 | 0.00 | 82 | 1006.2 |
| 20260502121822 | 81 | 81 | 1.7 | 0.0 | 0.00 | 0.00 | 0.00 | 83 | 1006.4 |
| 20260502121321 | 81 | 63 | 1.7 | 0.0 | 0.00 | 0.00 | 0.00 | 83 | 1006.3 |
| 20260502120820 | 80 | 89 | 5.2 | 0.0 | 0.00 | 0.00 | 0.00 | 84 | 1006.2 |
| 20260502120320 | 80 | 88 | 5.2 | 0.0 | 0.00 | 0.00 | 0.00 | 84 | 1006.2 |
| 20260502115820 | 80 | 355 | 4.3 | 0.0 | 0.00 | 0.00 | 0.00 | 84 | 1006.2 |
| 20260502115320 | 80 | 152 | 4.3 | 0.0 | 0.00 | 0.00 | 0.00 | 84 | 1006.2 |
| 20260502114819 | 79 | 89 | 1.7 | 0.0 | 0.00 | 0.00 | 0.00 | 84 | 1006.4 |
| 20260502114317 | 79 | 83 | 4.3 | 0.0 | 0.00 | 0.00 | 0.00 | 84 | 1006.5 |
| 20260502113817 | 79 | 144 | 5.2 | 0.0 | 0.00 | 0.00 | 0.00 | 84 | 1006.5 |
| 20260502113314 | 79 | 98 | 2.6 | 0.0 | 0.00 | 0.00 | 0.00 | 84 | 1006.5 |
| 20260502112814 | 79 | 89 | 3.5 | 0.0 | 0.00 | 0.00 | 0.00 | 84 | 1006.5 |
| 20260502112313 | 79 | 56 | 1.7 | 0.0 | 0.00 | 0.00 | 0.00 | 84 | 1006.6 |
| 20260502111813 | 79 | 82 | 2.6 | 0.0 | 0.00 | 0.00 | 0.00 | 84 | 1006.5 |
| 20260502111313 | 79 | 89 | 4.3 | 0.0 | 0.00 | 0.00 | 0.00 | 84 | 1006.4 |
| 20260502110812 | 79 | 208 | 1.7 | 0.0 | 0.00 | 0.00 | 0.00 | 84 | 1006.5 |
| 20260502110312 | 79 | 1 | 2.6 | 0.0 | 0.00 | 0.00 | 0.00 | 84 | 1006.4 |
| 20260502105812 | 79 | 115 | 7.0 | 0.0 | 0.00 | 0.00 | 0.00 | 84 | 1006.4 |
| 20260502105311 | 79 | 119 | 2.6 | 0.0 | 0.00 | 0.00 | 0.00 | 84 | 1006.4 |
| 20260502104811 | 79 | 156 | 4.3 | 0.0 | 0.00 | 0.00 | 0.00 | 84 | 1006.5 |
| 20260502104309 | 78 | 240 | 4.3 | 0.0 | 0.00 | 0.00 | 0.00 | 85 | 1006.4 |
| 20260502103805 | 78 | 337 | 3.5 | 0.0 | 0.00 | 0.00 | 0.00 | 85 | 1006.3 |
| 20260502103305 | 78 | 178 | 8.7 | 0.0 | 0.00 | 0.00 | 0.00 | 85 | 1006.4 |
| 20260502102806 | 78 | 331 | 1.7 | 0.0 | 0.00 | 0.00 | 0.00 | 86 | 1006.3 |
| 20260502102306 | 77 | 184 | 11.3 | 0.0 | 0.00 | 0.00 | 0.00 | 86 | 1006.3 |
| 20260502101801 | 77 | 188 | 7.8 | 0.0 | 0.00 | 0.00 | 0.00 | 86 | 1006.3 |
| 20260502101301 | 77 | 181 | 7.0 | 0.0 | 0.00 | 0.00 | 0.00 | 86 | 1006.4 |
| 20260502100801 | 77 | 184 | 4.3 | 0.0 | 0.00 | 0.00 | 0.00 | 85 | 1006.5 |
| 20260502100300 | 77 | 183 | 5.2 | 0.0 | 0.00 | 0.00 | 0.00 | 85 | 1006.5 |
| 20260502091251 | 77 | 215 | 2.6 | 0.0 | 0.00 | 0.00 | 0.00 | 85 | 1006.3 |
| 20260502090843 | 77 | 230 | 5.2 | 0.0 | 0.00 | 0.00 | 0.00 | 85 | 1006.3 |
| 20260502090749 | 77 | 230 | 3.5 | 0.0 | 0.00 | 0.00 | 0.00 | 85 | 1006.4 |
| 20260502090249 | 77 | 178 | 0.9 | 0.0 | 0.00 | 0.00 | 0.00 | 85 | 1006.2 |
| 20260502071222 | 77 | 238 | 7.0 | 0.0 | 0.00 | 0.00 | 0.00 | 84 | 1006.2 |
| 20260502070722 | 78 | 246 | 5.2 | 0.0 | 0.00 | 0.00 | 0.00 | 84 | 1006.3 |
| 20260502070222 | 78 | 194 | 1.7 | 0.0 | 0.00 | 0.00 | 0.00 | 84 | 1006.2 |
| 20260502065718 | 78 | 220 | 8.7 | 0.0 | 0.00 | 0.00 | 0.00 | 84 | 1006.3 |
| 20260502065218 | 78 | 215 | 4.3 | 0.0 | 0.00 | 0.00 | 0.00 | 84 | 1006.3 |
| 20260502064718 | 78 | 207 | 9.6 | 0.0 | 0.00 | 0.00 | 0.00 | 84 | 1006.3 |
| 20260502064211 | 78 | 227 | 8.7 | 0.0 | 0.00 | 0.00 | 0.00 | 84 | 1006.3 |
| 20260502063711 | 78 | 198 | 7.8 | 0.0 | 0.00 | 0.00 | 0.00 | 84 | 1006.3 |
| 20260502063208 | 78 | 243 | 4.3 | 0.0 | 0.00 | 0.00 | 0.00 | 84 | 1006.3 |
| 20260502062708 | 78 | 200 | 5.2 | 0.0 | 0.00 | 0.00 | 0.00 | 84 | 1006.3 |
| 20260502062208 | 78 | 276 | 3.5 | 0.0 | 0.00 | 0.00 | 0.00 | 84 | 1006.3 |
| 20260502061206 | 78 | 46 | 2.6 | 0.0 | 0.00 | 0.00 | 0.00 | 85 | 1006.4 |
| 20260502060703 | 78 | 23 | 3.5 | 0.0 | 0.00 | 0.00 | 0.00 | 85 | 1006.3 |
| 20260502060203 | 78 | 81 | 3.5 | 0.0 | 0.00 | 0.00 | 0.00 | 85 | 1006.2 |
| 20260502055702 | 78 | 89 | 1.7 | 0.0 | 0.00 | 0.00 | 0.00 | 85 | 1006.2 |
| 20260502055202 | 78 | 96 | 4.3 | 0.0 | 0.00 | 0.00 | 0.00 | 84 | 1006.4 |
| 20260502054657 | 78 | 79 | 2.6 | 0.0 | 0.00 | 0.00 | 0.00 | 84 | 1006.3 |
| 20260502054157 | 78 | 88 | 2.6 | 0.0 | 0.00 | 0.00 | 0.00 | 84 | 1006.3 |
| 20260502053657 | 78 | 89 | 2.6 | 0.0 | 0.00 | 0.00 | 0.00 | 84 | 1006.2 |